RH
91 90 88 86 85 85 84 83 84 84 82 78 74 74 75 76 74 76 76 77 74 70 64 65 64 65 70 72 72 72 73 71 73 75 77 76 72 69 67 72 72 66 70
80 85 88 86 86 86 86 86 86 86 84 80 77 77 78 74 73 75 74 76 75 70 70 70 68 68 66 68 68 70 70 72 76 79 80 77 72 69 65 73 75 67 71
81 84 83 86 86 87 86 87 86 86 84 82 81 78 78 75 72 75 74 75 72 66 70 67 65 63 62 67 70 68 68 70 76 81 82 77 74 68 66 70 72 61 65
79 83 82 87 86 87 86 88 86 86 84 84 83 82 79 76 76 76 74 72 71 66 71 67 67 67 69 72 71 67 69 71 78 77 73 72 67 64 73 65 66 69 71
80 82 83 88 88 88 87 89 88 86 85 86 84 83 82 79 76 75 73 77 77 74 73 70 70 72 73 75 71 65 64 70 77 73 70 81 73 58 70 66 67 66 65
82 82 88 89 88 88 88 89 87 86 86 86 85 84 83 80 77 76 78 79 79 70 70 65 71 70 75 74 71 64 68 73 76 76 80 66 70 57 66 67 68 68 66
83 85 89 89 89 89 89 88 88 87 87 87 86 85 83 82 79 79 80 79 78 75 69 67 68 71 72 73 69 66 72 74 65 72 74 73 69 62 68 63 65 60 66
85 89 88 90 90 89 89 89 88 88 88 88 87 85 84 83 79 78 79 82 78 72 69 68 69 71 72 73 69 73 74 72 58 64 68 71 72 63 69 59 69 68 68
87 84 88 90 90 91 90 90 89 88 89 88 87 86 85 84 83 79 80 81 78 75 74 74 72 72 70 71 75 77 76 76 61 52 61 72 70 63 58 66 62 64 66
91 80 87 91 91 92 92 92 91 90 90 89 88 88 87 86 84 83 82 81 80 78 79 78 75 73 72 78 78 77 80 79 77 59 70 72 68 63 57 64 62 58 63
90 79 85 86 89 91 91 93 93 93 92 92 91 91 90 84 84 82 82 83 80 82 81 78 75 77 79 81 81 79 76 76 77 67 69 74 65 63 63 58 62 63 63
86 85 86 81 81 83 84 92 92 91 92 89 87 86 88 89 86 86 89 90 86 85 83 80 79 81 78 80 84 77 81 78 77 77 67 73 58 61 61 63 64 64 65
88 82 82 80 81 76 81 88 89 89 89 90 88 89 90 90 92 91 92 91 92 91 89 92 93 82 79 80 80 77 80 81 82 76 67 62 63 62 64 65 65 66 66
91 94 82 83 76 75 79 84 84 84 85 89 88 89 88 92 94 92 95 98 97 98 98 97 96 84 75 72 74 76 81 84 84 82 77 72 68 63 64 66 67 67 67
86 82 90 83 77 80 80 81 82 82 84 84 86 85 86 87 85 89 96 96 98 99 97 97 95 86 81 73 72 76 83 86 84 83 87 80 74 68 65 66 67 68 68
74 86 90 86 82 80 80 80 81 84 84 82 82 82 84 81 83 91 94 96 97 93 93 94 93 88 84 76 71 76 84 85 84 84 85 83 76 76 69 66 67 67 66
59 82 83 90 83 81 79 78 79 83 78 79 79 80 85 87 89 90 91 93 90 86 85 86 87 82 82 74 75 77 82 84 84 83 84 86 83 80 76 67 67 66 65
66 80 80 84 88 85 79 80 78 79 75 75 76 77 83 84 84 88 87 88 86 84 79 81 85 86 86 83 86 83 83 84 85 86 86 88 90 85 82 77 72 68 67
66 75 83 83 92 86 81 80 77 77 74 72 74 74 76 79 80 84 83 84 86 84 81 77 89 79 89 88 83 87 86 84 84 78 88 88 90 90 93 86 84 82 77
69 70 76 74 82 86 84 81 78 78 73 70 72 72 68 71 78 82 82 82 82 81 81 78 81 90 88 87 73 80 90 87 86 86 87 81 89 89 92 93 94 95 86
59 76 73 75 80 95 90 83 84 86 78 71 71 68 66 64 74 80 80 78 75 76 75 76 86 88 93 92 93 94 92 92 90 90 86 85 82 82 90 92 94 96 95
56 69 75 70 75 88 88 74 76 77 75 70 71 69 66 64 68 75 78 76 74 81 81 80 85 93 93 91 91 94 93 89 92 90 92 86 85 83 82 84 89 89 93
66 65 66 70 81 80 90 80 75 79 78 76 75 74 70 68 70 69 74 77 78 76 79 79 82 83 95 95 87 85 93 92 93 82 88 89 85 86 84 80 79 81 84
69 69 67 69 72 81 96 85 84 86 88 79 78 72 73 70 69 70 75 76 78 76 78 80 80 84 87 89 94 86 82 75 76 76 77 77 76 72 74 75 73 70 70
72 77 78 71 75 76 92 87 85 84 81 80 80 75 72 72 70 75 76 77 76 78 80 78 83 82 85 86 91 95 91 92 87 81 77 74 76 75 74 71 70 72 68
74 77 81 77 79 75 96 83 82 81 82 85 81 78 75 76 77 80 76 75 75 77 80 80 79 80 80 82 83 88 89 90 90 86 84 79 77 70 71 71 73 73 74
Wind_Speed
13 15 22 23 21 20 20 18 18 18 18 18 19 19 18 18 18 18 20 20 19 18 20 20 21 22 22 23 24 24 23 23 22 22 20 21 21 23 22 20 19 15 21
18 19 24 24 22 21 21 19 18 17 18 18 19 18 17 19 18 19 19 19 21 21 20 21 21 21 23 23 22 23 22 22 21 19 18 17 19 21 21 19 20 18 21
20 18 20 23 22 22 21 19 18 19 19 19 18 18 20 19 18 20 20 20 22 20 20 19 20 22 21 22 20 21 21 21 19 17 15 9 12 21 19 20 20 20 20
19 18 18 23 22 21 22 20 18 19 19 18 19 19 20 19 20 21 21 21 20 20 20 20 20 21 21 20 19 21 20 18 15 13 7 7 11 21 19 21 19 20 19
19 18 18 23 22 21 21 21 20 19 19 19 19 20 19 20 20 21 21 20 20 21 21 20 18 18 16 18 19 20 19 17 14 9 8 7 8 16 18 21 18 19 18
16 16 23 25 22 22 20 22 21 20 19 19 19 19 20 20 21 21 20 20 19 18 20 20 17 16 16 19 20 20 18 13 12 7 7 10 8 18 18 19 18 19 17
16 14 18 25 24 22 22 21 22 20 20 20 20 21 21 21 22 22 20 19 18 17 18 21 17 15 15 14 19 18 15 13 8 7 7 8 10 18 17 19 16 17 17
18 15 16 22 23 23 22 21 21 21 21 21 20 21 22 22 23 21 20 20 19 19 18 18 16 15 15 15 17 17 13 11 8 7 7 7 14 16 16 17 16 15 16
16 17 15 16 19 21 21 20 21 21 22 21 21 21 22 23 22 22 20 18 19 19 18 15 14 14 14 16 16 15 15 12 6 6 7 5 14 16 16 15 15 15 13
16 18 15 14 16 16 15 18 19 19 21 21 21 20 19 20 20 20 20 17 17 19 17 15 14 12 10 14 15 17 13 11 6 5 5 6 15 14 15 15 14 13 13
12 17 14 15 14 15 14 13 15 16 18 20 18 17 16 10 12 13 12 16 17 17 16 15 14 13 12 13 14 12 10 4 5 3 3 12 14 16 13 13 13 12 11
18 19 15 16 16 16 12 13 13 12 11 12 12 14 9 10 10 10 13 15 16 16 14 13 13 13 9 4 4 9 3 5 4 3 3 10 14 14 14 12 11 11 10
6 15 21 19 16 18 14 11 8 8 8 8 14 11 10 8 9 8 7 8 7 10 6 6 6 4 7 5 4 4 4 4 3 3 6 13 12 13 12 11 10 9 8
11 13 19 21 19 19 12 11 12 11 10 9 10 12 10 8 8 9 7 7 7 4 6 4 3 4 5 6 8 7 6 4 3 2 3 9 10 11 12 11 10 8 7
8 15 18 19 20 17 16 12 12 12 11 11 11 12 10 10 11 9 8 8 6 5 5 4 4 3 4 5 6 8 6 5 6 3 2 7 8 10 10 10 10 9 8
10 14 17 20 18 18 16 17 13 11 12 11 11 11 13 11 11 9 9 8 7 6 5 5 5 4 3 4 6 6 6 5 5 5 4 3 6 7 9 10 10 9 8
12 12 18 13 22 19 19 18 15 12 12 12 12 15 14 13 12 10 9 8 8 8 8 6 4 3 3 2 6 5 5 5 5 5 4 4 4 7 7 9 9 8 8
13 13 11 15 14 22 19 16 14 14 12 12 11 11 15 14 16 12 9 8 8 7 8 7 5 4 4 5 4 4 4 4 5 5 4 4 4 3 6 8 9 9 9
15 12 10 13 19 24 21 16 15 17 14 12 12 12 15 16 16 13 10 10 9 7 6 7 3 7 5 4 5 5 4 5 6 4 6 5 5 5 4 7 9 8 9
15 13 12 15 23 19 19 16 13 13 13 12 12 13 17 14 17 14 10 10 9 8 6 7 7 2 4 5 3 4 3 4 4 5 6 5 5 6 5 6 4 5 11
18 14 14 12 16 19 18 19 16 16 14 13 12 17 18 15 16 14 11 10 11 10 10 10 5 6 2 3 4 3 2 3 3 4 4 4 5 6 6 5 4 4 4
21 20 15 19 19 20 17 20 18 16 15 14 13 16 17 16 15 13 13 12 12 8 10 10 8 3 2 4 4 3 2 3 3 5 4 4 6 4 5 6 6 6 5
21 18 16 14 14 22 28 19 17 15 14 14 13 13 14 16 15 14 14 11 11 10 10 11 10 9 5 3 4 5 2 5 1 1 5 4 5 4 5 6 6 6 6
22 20 16 19 22 20 20 20 25 19 17 15 14 13 13 15 15 14 13 12 12 9 11 10 8 7 6 8 1 1 2 4 3 1 2 3 4 5 6 4 5 6 6
22 19 19 21 21 17 23 28 22 21 16 14 13 17 14 13 15 12 13 12 12 9 9 11 10 9 6 6 4 4 2 1 1 2 2 2 2 4 4 5 5 5 6
20 19 17 15 17 17 23 31 28 25 20 16 17 14 12 11 10 12 14 13 12 11 11 10 10 11 9 7 6 4 5 5 4 3 1 3 2 3 3 4 5 5 5
Wind_Direction
173 167 164 160 157 152 144 142 138 134 129 124 123 121 120 117 117 109 114 113 110 103 107 106 104 107 102 96 96 93 94 94 93 92 89 88 95 93 93 84 86 86 91
154 160 161 162 160 154 147 147 142 137 134 131 129 129 128 125 121 116 119 111 111 109 102 104 102 100 98 96 97 98 96 94 87 81 84 93 90 93 95 94 90 90 86
151 157 159 163 160 154 149 146 147 142 140 138 135 132 134 128 123 119 116 112 107 106 103 108 108 104 102 101 99 100 99 96 88 90 88 89 93 97 102 93 93 101 93
151 155 159 161 161 155 150 149 151 145 143 140 137 134 136 133 127 122 117 111 110 109 109 109 111 108 108 107 104 104 103 98 92 84 79 89 101 102 94 99 96 94 92
154 158 158 160 160 157 155 151 152 148 145 143 137 138 137 136 131 125 121 116 113 116 117 120 118 107 113 113 111 101 92 81 77 77 76 70 88 96 91 93 90 90 88
158 162 159 159 161 160 159 153 154 151 149 142 140 141 137 137 131 124 122 117 121 126 126 128 126 107 100 115 109 106 102 89 82 79 70 86 84 105 97 95 97 97 96
160 167 164 160 161 162 161 158 155 152 147 144 141 140 140 135 130 130 126 122 123 122 130 136 130 108 100 106 112 110 106 100 88 86 85 89 96 103 105 107 100 103 101
156 164 168 160 160 162 162 160 158 154 149 147 147 145 142 135 135 135 132 129 132 132 135 137 126 106 90 107 108 103 89 79 85 77 83 92 111 108 102 103 103 104 104
153 165 167 163 159 160 162 162 160 156 152 151 149 146 141 138 140 141 139 141 142 134 135 134 124 114 107 116 120 109 107 102 107 112 89 96 104 105 110 106 110 106 109
155 167 168 166 160 160 161 161 161 157 153 150 149 144 141 142 146 146 142 148 138 134 139 139 135 118 103 134 122 121 110 101 99 102 103 108 112 119 118 123 115 119 114
162 173 168 171 167 159 161 159 155 154 153 147 145 144 143 145 140 138 139 136 136 135 142 147 144 121 106 103 116 108 102 104 109 106 110 118 132 125 127 123 122 119 112
185 178 170 174 174 166 163 159 157 154 155 153 151 150 148 142 140 133 132 130 138 141 146 154 149 129 107 94 103 102 106 114 101 99 103 136 135 134 131 129 126 124 127
265 199 176 176 174 175 169 165 162 161 156 157 155 153 148 141 139 136 139 137 142 142 151 151 145 134 135 140 138 127 123 118 129 119 137 149 143 140 140 137 134 132 132
277 319 201 175 174 178 172 172 167 167 164 163 165 155 153 147 150 144 144 144 142 148 143 150 153 153 133 115 136 139 140 142 134 124 148 149 150 154 151 149 146 148 148
231 265 240 188 174 176 175 174 172 171 168 165 164 161 157 158 160 154 151 152 150 146 156 151 154 164 134 128 136 141 149 154 146 144 146 148 156 162 165 163 162 164 164
206 259 283 187 186 177 177 175 174 173 166 165 165 166 161 163 165 160 158 158 156 164 159 152 161 172 190 134 143 158 158 153 153 153 157 153 152 163 179 179 178 180 180
235 211 245 237 180 187 181 177 175 176 169 170 166 165 165 163 162 161 163 166 170 163 160 158 162 144 137 127 136 147 153 156 160 169 169 171 175 180 198 201 198 197 203
221 196 220 238 236 179 187 180 176 175 175 169 166 166 166 166 162 163 167 176 172 165 163 166 157 144 153 150 131 146 157 157 176 187 186 183 193 201 217 221 220 220 225
218 206 197 289 276 185 180 181 178 175 178 173 168 169 173 168 168 164 170 178 170 167 162 168 152 153 143 150 147 149 156 162 182 183 204 205 209 206 215 240 231 239 246
215 211 195 218 232 201 173 177 176 175 180 176 174 176 174 170 171 165 170 177 171 168 162 157 160 126 142 157 144 150 174 183 175 188 208 208 209 216 212 222 235 239 239
210 212 210 229 265 258 181 178 178 176 176 175 175 179 178 170 171 165 169 171 178 172 168 160 134 143 105 140 97 24 334 264 231 212 200 207 220 222 213 220 222 233 245
212 198 209 216 222 235 218 179 179 177 174 172 169 177 172 170 171 169 171 173 172 161 158 157 146 132 124 167 136 104 209 304 253 229 216 215 228 222 223 222 218 222 232
212 215 207 231 250 241 263 173 169 175 173 173 167 170 169 169 172 170 171 166 162 165 171 172 162 156 143 194 183 145 130 226 158 260 227 217 229 218 228 236 232 231 227
203 206 207 210 216 235 257 173 175 176 174 168 165 165 171 174 171 166 167 164 164 169 174 178 170 156 140 171 181 172 120 143 180 249 278 237 222 229 231 235 235 234 231
191 198 199 219 218 236 265 180 173 174 171 162 164 169 169 171 170 170 169 167 172 179 174 177 173 168 160 160 162 146 138 132 123 134 213 263 273 232 230 226 228 233 233
187 187 203 210 232 239 254 166 169 168 168 162 167 168 168 166 169 173 176 178 177 178 177 179 177 178 180 170 180 167 162 162 190 162 172 229 213 275 241 237 233 229 228